Simultaneous Nadir Overpasses (SNOs) Predictions

Prediction of SNOs between GOES-15 and METOP-C Satellite Orbit:

Table of predicted SNOs for the next 14.0 days since TLE Epoch: 12/31/2022
Index Date Time (GOES-15) GOES-15 Lat,Lon METOP-C Lat,Lon Distance(km) Time Diff (sec)
1 12/31/2022 05:53:03 0.07,-127.74 0.43,-126.04 193.99 80
2 01/01/2023 18:11:55 -0.06,-127.73 0.60,-130.59 326.49 80
3 01/02/2023 17:53:55 -0.06,-127.76 -0.53,-125.60 246.32 80
4 01/04/2023 06:12:56 0.06,-127.87 -0.47,-130.20 265.38 80
5 01/05/2023 05:49:36 0.06,-127.89 0.66,-125.20 306.68 80
6 01/06/2023 18:08:26 -0.05,-127.87 0.40,-129.75 214.96 80
7 01/07/2023 17:50:27 -0.05,-127.90 -0.74,-124.76 357.37 80
8 01/09/2023 06:09:27 0.04,-128.00 -0.27,-129.35 154.78 80
9 01/10/2023 05:46:08 0.04,-128.02 0.86,-124.36 417.01 80
10 01/11/2023 18:04:58 -0.03,-127.99 0.17,-128.91 105.29 80
11 01/12/2023 17:46:59 -0.03,-128.01 -0.98,-123.92 466.75 80
